sat.trackr.live / text

‹ back to catalog

STARLINK-34765

NORAD 66506 · 2025-263X

PAYLOAD ACTIVE UNKNOWN

§ Identity

Operator
Country
US
Launch date
2025-11-15
Launch site
AFETR
Launch vehicle
Mass (kg)
RCS (m²)

Purposes: comms

External: N2YO · Heavens-Above · Gunter

§ Orbital elements

Epoch: 2026-09-20T21:35:19.450752Z

Period
94.27 min
Inclination
43.0015°
Eccentricity
0.0001562
Mean motion
15.27581442 rev/d
Perigee alt
482.0 km
Apogee alt
484.1 km
Semi-major
6,861.2 km
B*
3.3747e-4
RAAN
328.2576°
Arg perigee
265.3789°
Mean anomaly
94.6885°
Rev number
4,875

§ Raw data

STARLINK-347651 66506U 25263X   26263.89953068  .00009036  00000+0  33747-3 0  99922 66506  43.0015 328.2576 0001562 265.3789  94.6885 15.27581442 48758

JSON: /api/v1/satellites/66506 · /tle

For live sub-satellite position, see the globe view (requires WebGL).

§ Visibility from observer

Set your observer location to see the next 7 days of passes ≥ 10°. The values pass through the URL so the page stays shareable.

No JS? Fill the form by hand. The geolocation button needs JavaScript.